BOTAN

Last updated on Mon Oct 20 2025 00:02:08 GMT+0000 (Coordinated Universal Time)

1 65942U 98067XP 25291.83875253 .00115561 00000+0 18788-2 0 9998 2 65942 51.6329 54.1768 0003573 285.2985 74.7609 15.51800049 1313
UTC large
Height (km)
Speed (km/s)
/
Latitude / Longitude
Inclination (degrees)
Orbital Period (minutes)
Azimuth
Elevation
Range (km)
Doppler Factor

Next 0 passes for location: London (51.5072 / 0.1276)

Sorry there are no passes over London.